RH
56 58 58 50 42 43 53 56 69 50 59 35 38 40 35 35 33 29 22 33 40 42 43 41 40 34 29 31 36 39 48 53 54 57 55 57 67 74 80 86 81 78 78 78
61 51 46 38 28 32 31 29 31 35 36 34 32 34 32 34 37 33 39 55 53 56 53 49 41 31 30 31 36 37 51 61 65 64 67 70 76 83 90 89 98 93 89 86
65 52 60 60 40 37 36 33 37 42 32 31 33 33 35 34 37 44 54 60 59 52 54 53 39 36 35 32 35 43 56 75 77 77 81 79 83 87 92 92 92 96 93 92
79 67 72 38 34 39 37 35 33 35 36 37 36 34 36 40 44 49 59 59 59 57 58 51 34 32 28 30 33 40 52 71 86 86 92 86 84 89 90 96 91 91 96 95
79 76 54 34 33 40 44 40 37 41 44 44 42 38 49 50 52 54 56 59 61 61 53 41 29 26 22 26 30 37 48 62 78 83 93 95 93 95 92 93 95 96 97 97
70 74 68 37 38 41 49 46 48 48 51 49 50 59 63 62 65 66 67 73 66 62 42 31 23 21 23 26 29 36 43 50 68 80 93 97 98 97 97 98 97 98 97 97
60 72 60 36 40 43 55 50 52 57 62 64 66 64 62 61 67 70 68 63 56 50 38 24 18 19 23 26 30 35 39 44 53 77 88 96 97 97 97 97 98 97 97 97
69 77 67 41 41 54 65 63 60 65 67 68 72 71 68 68 66 75 72 67 46 40 27 19 18 19 26 27 32 37 39 43 47 62 82 96 96 97 96 97 97 97 97 97
64 61 47 45 48 64 65 63 59 61 66 67 70 78 74 71 74 75 74 59 50 33 23 22 24 24 25 28 33 39 42 46 48 55 68 85 96 97 97 97 97 97 97 97
59 44 55 52 48 50 61 59 51 50 54 62 64 63 71 79 78 71 66 57 44 33 26 26 28 29 31 37 39 39 42 50 51 52 58 71 93 97 97 97 97 97 97 92
59 53 59 41 49 54 55 55 48 42 41 54 64 62 62 74 76 62 55 41 37 34 33 35 34 36 40 42 43 47 47 55 58 56 60 64 82 96 97 97 97 97 89 76
54 54 62 47 44 47 45 45 46 42 43 50 54 55 54 66 97 82 61 45 45 46 41 42 46 48 44 46 53 58 59 63 71 69 65 68 76 93 97 97 97 90 83 79
38 34 37 34 35 37 36 35 35 36 38 38 45 50 60 86 95 80 65 55 51 51 51 49 45 51 55 59 68 70 73 81 84 87 77 76 77 90 97 97 97 96 90 85
63 55 46 40 35 32 31 30 32 34 33 32 36 51 79 96 90 72 66 63 58 49 45 47 53 58 62 70 69 72 93 91 85 95 87 85 85 88 97 97 97 95 95 91
56 52 48 44 36 32 32 33 31 32 29 33 54 95 95 83 72 69 60 53 47 45 47 50 56 62 66 73 79 80 93 95 94 96 97 97 97 97 97 97 97 96 92 91
50 47 44 42 39 42 36 33 38 70 93 91 98 96 81 71 64 61 52 47 45 48 50 55 61 65 72 77 80 82 86 92 96 96 97 97 97 97 96 97 97 94 92 91
46 65 81 88 87 75 61 59 91 96 96 91 85 78 66 63 59 58 49 44 45 44 47 48 51 57 67 81 85 85 89 92 94 96 97 97 97 98 98 97 94 92 90 88
68 79 87 89 90 93 87 93 96 85 84 83 70 63 63 65 55 44 42 42 41 45 45 44 47 52 59 69 78 84 88 91 92 95 96 96 97 97 96 96 94 94 94 97
75 79 81 82 85 86 86 88 85 69 60 57 61 65 63 58 47 41 42 44 43 44 42 45 49 51 53 57 60 62 64 66 68 70 72 74 75 74 74 75 77 81 83 84
49 57 60 60 63 68 61 57 52 50 49 49 54 58 54 45 42 46 45 43 41 42 45 48 48 50 51 53 55 57 58 59 60 62 63 64 66 68 69 72 74 76 78 83
53 54 54 54 54 55 53 55 56 58 77 79 69 57 51 53 51 47 44 42 45 48 49 50 50 50 51 52 53 54 55 57 58 60 61 63 64 66 69 73 77 79 82 88
59 60 59 53 54 52 51 53 60 77 79 67 56 49 47 48 46 43 42 43 46 49 52 52 52 52 52 52 52 53 55 57 58 60 62 64 66 70 75 79 82 86 91 92
46 56 66 67 61 54 53 57 61 73 75 58 46 43 42 40 42 42 42 44 47 52 53 53 53 52 53 53 53 55 56 57 57 59 63 66 70 75 79 81 82 88 91 93
57 53 57 69 79 83 82 79 76 78 71 55 50 47 41 40 40 42 45 47 51 53 52 52 53 53 53 54 56 56 57 58 59 61 65 69 74 78 83 86 89 92 90 87
58 60 59 65 71 76 79 80 79 75 70 62 57 54 47 44 44 51 53 52 50 51 51 52 54 53 51 53 54 54 55 56 60 62 66 71 76 81 84 87 91 89 94 95
59 60 64 65 66 71 72 74 74 73 69 65 60 60 52 50 55 58 54 50 49 48 50 52 52 49 48 51 52 54 55 56 60 63 67 72 76 80 86 91 90 92 93 92
67 65 64 66 66 65 68 68 75 73 66 62 62 61 54 56 58 57 52 51 48 50 52 52 50 46 48 50 53 54 55 58 61 63 66 70 73 74 78 83 86 84 80 78